NORTHEAST SUFFOLK  -  Winter Weather Advisory Winter Weather Advisory     Winter Weather Advisory Winter Weather Advisory        NORTHERN NASSAU  -  Winter Weather Advisory Winter Weather Advisory        NORTHWEST SUFFOLK  -  Winter Weather Advisory Winter Weather Advisory     Winter Weather Advisory Winter Weather Advisory        SOUTHEAST SUFFOLK  -  Winter Weather Advisory Winter Weather Advisory     Winter Weather Advisory Winter Weather Advisory        SOUTHERN NASSAU  -  Winter Weather Advisory Winter Weather Advisory        SOUTHWEST SUFFOLK  -  Winter Weather Advisory Winter Weather Advisory     Winter Weather Advisory Winter Weather Advisory      

Active alerts

Northern Nassau
  Details for Northern Nassau Winter Weather Advisory
Southern Nassau
  Details for Southern Nassau Winter Weather Advisory
Northwest Suffolk
  Details for Northwest Suffolk Winter Weather Advisory  +1 additional alert
Southwest Suffolk
  Details for Southwest Suffolk Winter Weather Advisory  +1 additional alert
Northeast Suffolk
  Details for Northeast Suffolk Winter Weather Advisory  +1 additional alert
Southeast Suffolk
  Details for Southeast Suffolk Winter Weather Advisory  +1 additional alert


WXM80 ListenWXM80 Stop

You find our weather info also at:

UK Metoffice

WeatherCloud

Weather Underground

Northeastern Weather Network

AWEKAS

Citizen Weather Observer Program (CWOP)

HAMweather, WeatherForYou, PWS Weather


Weather Underground History page Text

Daily Summary for July 4, 2017 Units:  Metric    English   Both
« Previous Day
Next Day »
Daily Weekly Monthly Yearly Custom
  High: Low: Average:
Temperature: 32.7 °C 18.5 °C 24.6 °C
Dew Point: 20.1 °C 14.9 °C 17.7 °C
Humidity: 95 % 41 % 69 %
Wind Speed: 6.3 km/h 0 km/h 1 km/h
Wind Gust: 11.1 km/h - -
Wind:- - SW
Pressure: 1018.2 hPa 1014.1 hPa -
Precipitation: 1.02 mm    
Historical Graphs
 
 
Tabular Data for July 4, 2017
Time Temperature Dew Point Pressure Wind Wind Speed Wind Gust Humidity Rainfall Rate (Hourly)
00:04 22.6 °C 19.4 °C 1015.1 hPa SW 3.1 km/h 9.3 km/h 82 % 0 mm
00:09 22.6 °C 19.9 °C 1015.1 hPa WNW 1.8 km/h 5.6 km/h 85 % 0.51 mm
00:14 22.6 °C 20.1 °C 1015.1 hPa WNW 0.3 km/h 11.1 km/h 86 % 0.76 mm
00:19 22.5 °C 20.1 °C 1015.1 hPa NW 0.3 km/h 1.9 km/h 86 % 0.76 mm
00:24 22.4 °C 19.9 °C 1014.8 hPa Calm     86 % 0.76 mm
00:29 22.3 °C 19.9 °C 1014.8 hPa Calm     86 % 0.76 mm
00:34 22.2 °C 19.8 °C 1014.8 hPa NW 1.4 km/h 3.7 km/h 86 % 0.76 mm
00:39 22.1 °C 19.7 °C 1014.8 hPa NW 1 km/h 1.9 km/h 86 % 0.76 mm
00:44 22.1 °C 19.6 °C 1014.8 hPa Calm   1.9 km/h 86 % 0.76 mm
00:50 21.9 °C 19.7 °C 1014.8 hPa Calm     87 % 0.76 mm
00:55 21.9 °C 19.6 °C 1014.8 hPa Calm     87 % 0.76 mm
01:00 21.8 °C 19.8 °C 1014.8 hPa Calm   1.9 km/h 88 % 0.76 mm
01:05 21.8 °C 19.7 °C 1014.8 hPa NW 0.3 km/h 1.6 km/h 88 % 0.76 mm
01:10 21.7 °C 19.8 °C 1014.8 hPa Calm     89 % 0.25 mm
01:15 21.7 °C 19.8 °C 1014.4 hPa Calm   1.9 km/h 89 % 0 mm
01:20 21.7 °C 19.8 °C 1014.8 hPa Calm     89 % 0.25 mm
01:25 21.6 °C 19.9 °C 1014.4 hPa Calm     90 % 0.25 mm
01:30 21.6 °C 19.8 °C 1014.4 hPa Calm     90 % 0.25 mm
01:35 21.6 °C 20 °C 1014.4 hPa Calm     91 % 0.25 mm
01:40 21.5 °C 19.9 °C 1014.4 hPa Calm     91 % 0.25 mm
01:45 21.5 °C 19.9 °C 1014.4 hPa Calm     91 % 0.25 mm
01:50 21.4 °C 19.9 °C 1014.4 hPa Calm     91 % 0.25 mm
01:55 21.4 °C 19.8 °C 1014.4 hPa Calm     91 % 0.25 mm
02:00 21.3 °C 19.8 °C 1014.4 hPa NW 0.3 km/h 1.9 km/h 91 % 0.25 mm
02:05 21.3 °C 19.7 °C 1014.1 hPa Calm     91 % 0.25 mm
02:10 21.2 °C 19.7 °C 1014.4 hPa Calm     91 % 0.25 mm
02:11 21.2 °C 19.5 °C 1014.4 hPa Calm     90 % 0.25 mm
02:16 21.2 °C 19.4 °C 1014.4 hPa Calm     90 % 0 mm
02:21 21.1 °C 19.3 °C 1014.4 hPa Calm     90 % 0 mm
02:26 21 °C 19.3 °C 1014.1 hPa Calm     90 % 0 mm
02:31 20.9 °C 19.2 °C 1014.1 hPa Calm     90 % 0 mm
02:37 20.8 °C 19.1 °C 1014.4 hPa NW 0.3 km/h 1.6 km/h 90 % 0 mm
02:42 20.8 °C 19.1 °C 1014.4 hPa NW 0.6 km/h 3.7 km/h 90 % 0 mm
02:47 20.7 °C 18.9 °C 1014.4 hPa Calm     90 % 0 mm
02:52 20.6 °C 18.9 °C 1014.4 hPa Calm     90 % 0 mm
02:57 20.5 °C 18.8 °C 1014.4 hPa Calm     90 % 0 mm
03:02 20.4 °C 18.7 °C 1014.4 hPa Calm     90 % 0 mm
03:07 20.3 °C 18.6 °C 1014.4 hPa Calm     90 % 0 mm
03:12 20.3 °C 18.6 °C 1014.4 hPa Calm     90 % 0 mm
03:17 20.2 °C 18.5 °C 1014.4 hPa Calm     90 % 0 mm
03:22 20.1 °C 18.4 °C 1014.4 hPa Calm     90 % 0 mm
03:27 20.1 °C 18.4 °C 1014.8 hPa Calm     90 % 0 mm
03:32 20 °C 18.3 °C 1014.8 hPa Calm     90 % 0 mm
03:37 19.9 °C 18.3 °C 1014.8 hPa Calm     90 % 0 mm
03:42 19.9 °C 18.2 °C 1014.4 hPa Calm     90 % 0 mm
03:47 19.8 °C 18.3 °C 1014.8 hPa Calm     91 % 0 mm
03:52 19.8 °C 18.1 °C 1014.8 hPa Calm     90 % 0 mm
03:57 19.7 °C 18.1 °C 1014.8 hPa Calm     90 % 0 mm
04:02 19.7 °C 18.2 °C 1014.8 hPa Calm     91 % 0 mm
04:07 19.6 °C 18.1 °C 1014.8 hPa Calm     91 % 0 mm
04:12 19.6 °C 18.1 °C 1014.8 hPa Calm     91 % 0 mm
04:17 19.5 °C 18 °C 1014.8 hPa Calm     91 % 0 mm
04:22 19.4 °C 17.9 °C 1014.8 hPa Calm     91 % 0 mm
04:27 19.4 °C 17.9 °C 1014.8 hPa Calm     91 % 0 mm
04:32 19.3 °C 17.8 °C 1014.8 hPa Calm     91 % 0 mm
04:37 19.3 °C 17.8 °C 1015.1 hPa Calm     91 % 0 mm
04:42 19.2 °C 17.7 °C 1015.1 hPa Calm     91 % 0 mm
04:47 19.2 °C 17.7 °C 1015.1 hPa Calm     91 % 0 mm
04:52 19.1 °C 17.6 °C 1015.1 hPa Calm     91 % 0 mm
04:57 19.1 °C 17.6 °C 1015.1 hPa Calm     91 % 0 mm
05:02 19 °C 17.5 °C 1015.5 hPa Calm     91 % 0 mm
05:07 18.9 °C 17.6 °C 1015.5 hPa Calm     92 % 0 mm
05:12 18.9 °C 17.6 °C 1015.5 hPa Calm     92 % 0 mm
05:17 18.8 °C 17.5 °C 1015.5 hPa Calm     92 % 0 mm
05:22 18.8 °C 17.4 °C 1015.5 hPa Calm     92 % 0 mm
05:28 18.7 °C 17.4 °C 1015.5 hPa Calm     92 % 0 mm
05:33 18.7 °C 17.3 °C 1015.5 hPa Calm     92 % 0 mm
05:38 18.7 °C 17.3 °C 1015.5 hPa Calm     92 % 0 mm
05:43 18.6 °C 17.3 °C 1015.5 hPa Calm     92 % 0 mm
05:48 18.6 °C 17.2 °C 1015.5 hPa Calm     92 % 0 mm
05:53 18.6 °C 17.2 °C 1015.5 hPa Calm     92 % 0 mm
05:58 18.6 °C 17.2 °C 1015.5 hPa Calm     92 % 0 mm
06:03 18.5 °C 17.3 °C 1015.5 hPa Calm     93 % 0 mm
06:08 18.5 °C 17.3 °C 1015.8 hPa Calm     93 % 0 mm
06:13 18.5 °C 17.3 °C 1015.8 hPa Calm     93 % 0 mm
06:18 18.5 °C 17.3 °C 1015.8 hPa Calm   1.9 km/h 93 % 0 mm
06:23 18.6 °C 17.4 °C 1015.8 hPa Calm     93 % 0 mm
06:28 18.6 °C 17.6 °C 1015.8 hPa Calm     94 % 0 mm
06:33 18.7 °C 17.7 °C 1016.1 hPa Calm     94 % 0 mm
06:38 18.8 °C 17.8 °C 1016.1 hPa Calm     94 % 0 mm
06:43 19 °C 18.2 °C 1016.1 hPa SW 0.2 km/h 1.9 km/h 95 % 0 mm
06:45 19.1 °C 18.3 °C 1016.1 hPa East 0.3 km/h 1.9 km/h 95 % 0 mm
06:50 19.3 °C 18.4 °C 1016.5 hPa Calm   1.9 km/h 95 % 0 mm
06:56 19.3 °C 18.4 °C 1016.5 hPa Calm   1.6 km/h 95 % 0 mm
06:57 19.3 °C 18.4 °C 1016.5 hPa Calm     95 % 0 mm
07:02 19.3 °C 18.5 °C 1016.5 hPa Calm   1.9 km/h 95 % 0 mm
07:04 19.3 °C 18.5 °C 1016.5 hPa Calm   1.9 km/h 95 % 0 mm
07:09 19.3 °C 18.3 °C 1016.5 hPa ENE 0.3 km/h 3.7 km/h 94 % 0 mm
07:14 19.4 °C 18.4 °C 1016.8 hPa ENE 0.5 km/h 1.9 km/h 94 % 0 mm
07:19 19.4 °C 18.4 °C 1016.8 hPa NE 0.8 km/h 3.7 km/h 94 % 0 mm
07:24 19.4 °C 18.4 °C 1016.5 hPa NE 0.5 km/h 1.9 km/h 94 % 0 mm
07:29 19.4 °C 18.3 °C 1016.8 hPa NNW 0.5 km/h 1.9 km/h 93 % 0 mm
07:34 19.5 °C 18.3 °C 1016.8 hPa NNE 0.2 km/h 1.9 km/h 93 % 0 mm
07:39 19.6 °C 18.4 °C 1016.8 hPa ENE 1.9 km/h 5.6 km/h 93 % 0 mm
07:44 19.7 °C 18.5 °C 1016.8 hPa NNE 2.6 km/h 5.6 km/h 93 % 0 mm
07:49 19.7 °C 18.6 °C 1016.8 hPa North 3.2 km/h 5.6 km/h 93 % 0 mm
07:54 19.8 °C 18.4 °C 1016.8 hPa NNE 1.8 km/h 5.6 km/h 92 % 0 mm
07:59 19.8 °C 18.3 °C 1017.2 hPa NNE 1.9 km/h 3.7 km/h 91 % 0 mm
08:04 19.9 °C 18.3 °C 1017.2 hPa NNE 0.3 km/h   90 % 0 mm
08:09 20.1 °C 18.4 °C 1017.2 hPa Calm     90 % 0 mm
08:14 20.2 °C 18.5 °C 1017.5 hPa Calm   1.9 km/h 90 % 0 mm
08:19 20.2 °C 18.3 °C 1017.2 hPa Calm     89 % 0 mm
08:24 20.3 °C 18.2 °C 1017.2 hPa Calm     88 % 0 mm
08:29 20.4 °C 18.4 °C 1017.2 hPa Calm   1.9 km/h 88 % 0 mm
08:34 20.5 °C 18.4 °C 1017.5 hPa NNE 1.3 km/h 3.7 km/h 88 % 0 mm
08:39 20.6 °C 18.2 °C 1017.5 hPa North 0.2 km/h 5.6 km/h 86 % 0 mm
08:44 20.7 °C 18.1 °C 1017.5 hPa North 1 km/h 3.2 km/h 85 % 0 mm
08:49 20.8 °C 17.8 °C 1017.5 hPa North 2.9 km/h 5.6 km/h 83 % 0 mm
08:54 20.9 °C 17.8 °C 1017.2 hPa North 0.8 km/h 5.6 km/h 82 % 0 mm
08:59 21 °C 17 °C 1017.2 hPa Calm   3.7 km/h 78 % 0 mm
09:05 21.1 °C 17.1 °C 1017.5 hPa North 2.6 km/h 5.6 km/h 78 % 0 mm
09:10 21.2 °C 17.4 °C 1017.2 hPa North 1.9 km/h 5.6 km/h 79 % 0 mm
09:15 21.3 °C 17.1 °C 1017.2 hPa Calm   3.7 km/h 77 % 0 mm
09:20 21.4 °C 17.2 °C 1017.2 hPa North 3.9 km/h 5.6 km/h 77 % 0 mm
09:25 21.4 °C 17.1 °C 1017.5 hPa NNE 0.3 km/h 1.9 km/h 76 % 0 mm
09:30 21.6 °C 16.9 °C 1017.5 hPa North 1 km/h 5.6 km/h 75 % 0 mm
09:35 21.7 °C 16.8 °C 1017.2 hPa NNE 1 km/h 3.7 km/h 74 % 0 mm
09:40 21.7 °C 16.9 °C 1017.2 hPa Calm     74 % 0 mm
09:45 21.8 °C 17.2 °C 1017.5 hPa Calm     75 % 0 mm
09:50 21.9 °C 17.3 °C 1017.5 hPa Calm     75 % 0 mm
09:55 22 °C 16.7 °C 1017.2 hPa Calm   1.9 km/h 72 % 0 mm
10:00 22.1 °C 17.4 °C 1017.2 hPa NE 0.2 km/h 1.9 km/h 75 % 0 mm
10:05 22.1 °C 17.3 °C 1017.2 hPa NE 1.4 km/h 3.7 km/h 74 % 0 mm
10:10 22.2 °C 17.1 °C 1017.2 hPa Calm     73 % 0 mm
10:15 22.3 °C 17 °C 1017.2 hPa Calm     72 % 0 mm
10:20 22.5 °C 17.4 °C 1017.2 hPa NNE 1.1 km/h 3.2 km/h 73 % 0 mm
10:25 22.7 °C 17.3 °C 1017.2 hPa NW 1.6 km/h 3.7 km/h 72 % 0 mm
10:30 22.8 °C 17.5 °C 1017.2 hPa NW 1.4 km/h 5.6 km/h 72 % 0 mm
10:35 23 °C 17.7 °C 1017.2 hPa NW 0.8 km/h 3.7 km/h 72 % 0 mm
10:40 23.1 °C 17.8 °C 1017.2 hPa NW 0.2 km/h 5.6 km/h 72 % 0 mm
10:45 23.2 °C 17.9 °C 1017.2 hPa NW 0.8 km/h 3.7 km/h 72 % 0 mm
10:51 23.7 °C 19.2 °C 1017.2 hPa NW 3.1 km/h 3.2 km/h 76 % 0 mm
10:56 23.9 °C 17.9 °C 1016.8 hPa NNW 1.9 km/h 5.6 km/h 69 % 0 mm
11:01 24.4 °C 18.3 °C 1017.2 hPa North 1.9 km/h 6.4 km/h 69 % 0 mm
11:11 25.2 °C 17.6 °C 1017.2 hPa NNW 2.7 km/h 5.6 km/h 63 % 0 mm
11:16 25.4 °C 18.1 °C 1017.2 hPa NW 1.8 km/h 5.6 km/h 64 % 0 mm
11:21 25.8 °C 17.7 °C 1017.2 hPa NW 1.9 km/h 6.4 km/h 61 % 0 mm
11:26 26.2 °C 19.4 °C 1016.8 hPa North 2.9 km/h 6.4 km/h 66 % 0 mm
11:31 26.8 °C 18.9 °C 1017.2 hPa NNE 3.2 km/h 5.6 km/h 62 % 0 mm
11:36 27.3 °C 18.3 °C 1016.8 hPa NW 3.2 km/h 5.6 km/h 58 % 0 mm
11:41 27.6 °C 18 °C 1016.8 hPa North 1.8 km/h 3.7 km/h 56 % 0 mm
11:46 27.8 °C 16.4 °C 1016.8 hPa West 5.1 km/h 7.4 km/h 50 % 0 mm
11:56 28.4 °C 17.9 °C 1016.8 hPa North 5 km/h 5.6 km/h 53 % 0 mm
12:01 28.7 °C 16.6 °C 1016.8 hPa NNW 1.9 km/h 4.8 km/h 48 % 0 mm
12:06 28.9 °C 17.2 °C 1016.8 hPa NW 1.1 km/h 3.7 km/h 49 % 0 mm
12:11 29.1 °C 15.9 °C 1016.8 hPa WNW 1.4 km/h 3.7 km/h 45 % 0 mm
12:16 29.2 °C 15.3 °C 1016.8 hPa WNW 1.1 km/h 5.6 km/h 43 % 0 mm
12:22 29.4 °C 16.6 °C 1016.8 hPa WNW 0.6 km/h 3.7 km/h 46 % 0 mm
12:27 29.7 °C 15.4 °C 1016.8 hPa NW 1.6 km/h 4.8 km/h 42 % 0 mm
12:32 29.9 °C 16.3 °C 1016.8 hPa West 5.8 km/h 5.8 km/h 44 % 0 mm
12:37 30.1 °C 16.4 °C 1016.8 hPa West 0.5 km/h 5.6 km/h 44 % 0 mm
12:42 30.3 °C 16.3 °C 1016.8 hPa NNW 0.6 km/h 5.6 km/h 43 % 0 mm
12:47 30.6 °C 16.6 °C 1016.5 hPa NNE 1.4 km/h 5.6 km/h 43 % 0 mm
12:52 30.7 °C 17.7 °C 1016.5 hPa WNW 0.6 km/h 6.4 km/h 46 % 0 mm
12:57 30.7 °C 18.4 °C 1016.5 hPa NNE 0.6 km/h 5.6 km/h 48 % 0 mm
13:02 30.8 °C 17.2 °C 1016.5 hPa West 2.4 km/h 3.7 km/h 44 % 0 mm
13:07 30.8 °C 16.8 °C 1016.5 hPa WNW 2.9 km/h 6.4 km/h 43 % 0 mm
13:12 30.9 °C 18.3 °C 1016.5 hPa West 1 km/h 4.8 km/h 47 % 0 mm
13:17 31.1 °C 19.4 °C 1016.5 hPa West 5.3 km/h 7.4 km/h 50 % 0 mm
13:22 31.2 °C 17.4 °C 1016.1 hPa NNE 0.5 km/h 5.6 km/h 44 % 0 mm
13:27 31.3 °C 17.6 °C 1016.1 hPa West 3.5 km/h 5.6 km/h 44 % 0 mm
13:32 31.4 °C 18.7 °C 1016.1 hPa West 1.4 km/h 3.2 km/h 47 % 0 mm
13:37 31.6 °C 17.4 °C 1016.1 hPa WSW 3.2 km/h 5.6 km/h 43 % 0 mm
13:42 31.7 °C 17.9 °C 1016.1 hPa SW 2.7 km/h 7.4 km/h 44 % 0 mm
13:47 31.7 °C 18.6 °C 1016.1 hPa Calm   1.9 km/h 46 % 0 mm
13:52 31.8 °C 18.1 °C 1016.1 hPa SSW 3.1 km/h 6.4 km/h 44 % 0 mm
13:57 31.8 °C 17.7 °C 1016.1 hPa WSW 1.9 km/h 5.6 km/h 43 % 0 mm
14:04 31.9 °C 18.6 °C 1015.8 hPa NNW 2.4 km/h 3.7 km/h 45 % 0 mm
14:10 32.1 °C 18.6 °C 1015.8 hPa North 0.8 km/h 3.7 km/h 45 % 0 mm
14:15 32.2 °C 18.4 °C 1015.8 hPa WNW 3.2 km/h 3.7 km/h 44 % 0 mm
14:20 32.3 °C 17.7 °C 1015.8 hPa WNW 5.6 km/h 5.6 km/h 42 % 0 mm
14:24 32.4 °C 17.4 °C 1015.8 hPa WNW 4 km/h 5.6 km/h 41 % 0 mm
14:29 32.4 °C 17.8 °C 1015.8 hPa SW 4.7 km/h 6.4 km/h 42 % 0 mm
14:35 32.4 °C 18.2 °C 1015.8 hPa NW 1.4 km/h 3.7 km/h 43 % 0 mm
14:40 32.2 °C 17.7 °C 1015.8 hPa WNW 5.1 km/h 11.1 km/h 42 % 0 mm
14:45 32.2 °C 18.8 °C 1015.8 hPa WNW 1.6 km/h 3.7 km/h 45 % 0 mm
14:50 32.3 °C 18.4 °C 1015.8 hPa NNW 1.4 km/h 5.6 km/h 44 % 0 mm
14:55 32.3 °C 18.5 °C 1015.8 hPa NW 0.5 km/h 3.7 km/h 44 % 0 mm
15:00 32.4 °C 19.3 °C 1015.8 hPa WNW 0.6 km/h 3.7 km/h 46 % 0 mm
15:05 32.5 °C 18.3 °C 1015.8 hPa WNW 2.9 km/h 7.4 km/h 43 % 0 mm
15:10 32.6 °C 17.6 °C 1015.8 hPa WNW 2.3 km/h 3.7 km/h 41 % 0 mm
15:15 32.7 °C 18.1 °C 1015.8 hPa SW 5.5 km/h 8 km/h 42 % 0 mm
15:20 32.7 °C 17.7 °C 1015.8 hPa WNW 4.5 km/h 9.7 km/h 41 % 0 mm
15:25 32.6 °C 17.7 °C 1015.8 hPa NNE 6.3 km/h 8 km/h 41 % 0 mm
15:30 32.5 °C 17.6 °C 1015.5 hPa NNE 4.7 km/h 8 km/h 41 % 0 mm
15:35 32.4 °C 17.8 °C 1015.8 hPa NE 3.1 km/h 9.3 km/h 42 % 0 mm
15:40 32.3 °C 18.1 °C 1015.8 hPa NNE 3.7 km/h 7.4 km/h 43 % 0 mm
15:45 32.2 °C 17.2 °C 1015.8 hPa NNE 4.5 km/h 7.4 km/h 41 % 0 mm
15:50 32.3 °C 17.3 °C 1015.8 hPa North 5.3 km/h 7.4 km/h 41 % 0 mm
15:55 32.2 °C 17.7 °C 1015.8 hPa North 2.9 km/h 5.6 km/h 42 % 0 mm
15:57 32.3 °C 18.8 °C 1015.8 hPa NNW 2.1 km/h 5.6 km/h 45 % 0 mm
16:02 32.3 °C 17.8 °C 1015.8 hPa NW 0.5 km/h 5.6 km/h 42 % 0 mm
16:07 32.3 °C 17.7 °C 1015.8 hPa NNW 1.4 km/h 5.6 km/h 42 % 0 mm
16:12 32.2 °C 18 °C 1015.8 hPa NNE 2.7 km/h 5.6 km/h 43 % 0 mm
16:17 31.9 °C 17.8 °C 1015.8 hPa North 3.2 km/h 5.6 km/h 43 % 0 mm
16:22 31.8 °C 18.4 °C 1015.8 hPa WNW 0.8 km/h 5.6 km/h 45 % 0 mm
16:27 31.6 °C 17.9 °C 1015.8 hPa WNW 1.9 km/h 5.6 km/h 44 % 0 mm
16:32 31.4 °C 17.3 °C 1015.8 hPa WNW 1 km/h 3.7 km/h 43 % 0 mm
16:37 31.2 °C 17.2 °C 1015.8 hPa NNE 2.6 km/h 5.6 km/h 43 % 0 mm
16:42 31.1 °C 17.7 °C 1015.8 hPa NNE 2.4 km/h 5.6 km/h 45 % 0 mm
16:47 31 °C 18 °C 1015.5 hPa NNE 3.2 km/h 5.6 km/h 46 % 0 mm
16:52 30.8 °C 17.5 °C 1015.8 hPa NNW 1.4 km/h 3.7 km/h 45 % 0 mm
16:57 30.9 °C 17.2 °C 1015.5 hPa WNW 0.8 km/h 1.9 km/h 44 % 0 mm
17:02 30.8 °C 17.5 °C 1015.5 hPa WNW 0.5 km/h 1.9 km/h 45 % 0 mm
17:07 30.7 °C 18.1 °C 1015.5 hPa WNW 1.1 km/h 3.7 km/h 47 % 0 mm
17:12 30.6 °C 17.7 °C 1015.5 hPa Calm   1.9 km/h 46 % 0 mm
17:15 30.6 °C 16.9 °C 1015.5 hPa WSW 1.1 km/h 4.8 km/h 44 % 0 mm
17:20 30.6 °C 17.3 °C 1015.5 hPa Calm     45 % 0 mm
17:25 30.5 °C 16.9 °C 1015.5 hPa Calm   3.7 km/h 44 % 0 mm
17:30 30.6 °C 16.6 °C 1015.5 hPa WNW 1.3 km/h 3.7 km/h 43 % 0 mm
17:35 30.5 °C 15.8 °C 1015.5 hPa NNW 2.9 km/h 5.6 km/h 41 % 0 mm
17:40 30.4 °C 16.4 °C 1015.5 hPa NNW 3.4 km/h 5.6 km/h 43 % 0 mm
17:42 30.3 °C 15.6 °C 1015.5 hPa NNW 1 km/h 5.6 km/h 41 % 0 mm
17:47 30.2 °C 15.8 °C 1015.5 hPa NNE 2.3 km/h 5.6 km/h 42 % 0 mm
17:52 30 °C 15.7 °C 1015.5 hPa NW 1.9 km/h 4.8 km/h 42 % 0 mm
17:57 29.8 °C 15.5 °C 1015.5 hPa NNE 2.1 km/h 3.7 km/h 42 % 0 mm
18:02 29.6 °C 15.7 °C 1015.5 hPa North 2.6 km/h 5.6 km/h 43 % 0 mm
18:07 29.4 °C 15.5 °C 1015.5 hPa North 2.3 km/h 5.6 km/h 43 % 0 mm
18:12 29.2 °C 15 °C 1015.5 hPa NNW 1.8 km/h 5.6 km/h 42 % 0 mm
18:17 29.2 °C 14.9 °C 1015.5 hPa NW 3.5 km/h 5.6 km/h 42 % 0 mm
18:22 29.1 °C 15.6 °C 1015.5 hPa WNW 0.2 km/h 1.9 km/h 44 % 0 mm
18:27 29 °C 15.9 °C 1015.5 hPa WNW 0.5 km/h 1.9 km/h 45 % 0 mm
18:32 28.9 °C 15.8 °C 1015.5 hPa Calm   1.9 km/h 45 % 0 mm
18:37 28.8 °C 15.4 °C 1015.5 hPa WNW 1.4 km/h 3.7 km/h 44 % 0 mm
18:42 28.8 °C 15.3 °C 1015.5 hPa WNW 2.6 km/h 5.6 km/h 44 % 0 mm
18:47 28.7 °C 15.2 °C 1015.5 hPa WNW 0.3 km/h 1.9 km/h 44 % 0 mm
18:52 28.7 °C 15.6 °C 1015.8 hPa Calm   1.9 km/h 45 % 0 mm
18:57 28.6 °C 15.4 °C 1015.8 hPa Calm     45 % 0 mm
19:02 28.4 °C 15.3 °C 1015.8 hPa Calm     45 % 0 mm
19:07 28.3 °C 15.2 °C 1015.8 hPa Calm     45 % 0 mm
19:12 28.1 °C 15.1 °C 1016.1 hPa Calm     45 % 0 mm
19:17 28 °C 15.3 °C 1016.1 hPa Calm     46 % 0 mm
19:22 27.8 °C 15.2 °C 1016.1 hPa Calm     46 % 0 mm
19:27 27.8 °C 16.4 °C 1016.1 hPa Calm     50 % 0 mm
19:32 27.6 °C 17.8 °C 1016.1 hPa Calm     55 % 0 mm
19:38 27.4 °C 17.9 °C 1016.1 hPa Calm     56 % 0 mm
19:43 27.3 °C 17.4 °C 1016.1 hPa Calm     55 % 0 mm
19:48 27.1 °C 17.6 °C 1016.5 hPa Calm     56 % 0 mm
19:53 26.9 °C 17.7 °C 1016.1 hPa Calm     57 % 0 mm
19:58 26.8 °C 18.1 °C 1016.5 hPa Calm     59 % 0 mm
20:03 26.7 °C 18.3 °C 1016.5 hPa Calm     60 % 0 mm
20:08 26.5 °C 18.1 °C 1016.5 hPa Calm     60 % 0 mm
20:13 26.3 °C 17.9 °C 1016.5 hPa Calm     60 % 0 mm
20:18 26.1 °C 17.7 °C 1016.5 hPa Calm     60 % 0 mm
20:23 25.9 °C 17.6 °C 1016.5 hPa Calm     60 % 0 mm
20:28 25.7 °C 17.6 °C 1016.5 hPa Calm     61 % 0 mm
20:33 25.6 °C 17.5 °C 1016.8 hPa Calm     61 % 0 mm
20:38 25.4 °C 17.3 °C 1016.8 hPa Calm     61 % 0 mm
20:43 25.2 °C 17.4 °C 1016.8 hPa Calm     62 % 0 mm
20:48 24.9 °C 17.3 °C 1016.8 hPa Calm     63 % 0 mm
20:53 24.7 °C 17.4 °C 1016.8 hPa Calm     64 % 0 mm
20:54 24.6 °C 17.6 °C 1016.8 hPa Calm     65 % 0 mm
20:59 24.3 °C 17.1 °C 1017.2 hPa Calm     64 % 0 mm
21:04 24.1 °C 17.1 °C 1017.2 hPa Calm     65 % 0 mm
21:09 23.9 °C 16.9 °C 1017.2 hPa Calm     65 % 0 mm
21:14 23.8 °C 16.8 °C 1017.2 hPa Calm     65 % 0 mm
21:19 23.8 °C 16.8 °C 1017.5 hPa Calm   1.9 km/h 65 % 0 mm
21:24 23.7 °C 16.9 °C 1017.5 hPa Calm     66 % 0 mm
21:29 23.6 °C 16.8 °C 1017.5 hPa WNW 0.5 km/h 3.7 km/h 66 % 0 mm
21:34 23.4 °C 16.9 °C 1017.5 hPa Calm     67 % 0 mm
21:39 23.3 °C 17.1 °C 1017.8 hPa Calm     68 % 0 mm
21:44 23.2 °C 17.4 °C 1017.8 hPa Calm     70 % 0 mm
21:49 23.1 °C 17.3 °C 1017.5 hPa Calm     70 % 0 mm
21:54 22.9 °C 17.4 °C 1017.8 hPa Calm     71 % 0 mm
21:59 22.8 °C 17.3 °C 1017.8 hPa Calm     71 % 0 mm
22:04 22.8 °C 17.2 °C 1017.8 hPa Calm     71 % 0 mm
22:09 22.7 °C 17.1 °C 1017.8 hPa Calm     71 % 0 mm
22:14 22.6 °C 17.1 °C 1017.8 hPa Calm     71 % 0 mm
22:19 22.5 °C 17 °C 1017.8 hPa Calm     71 % 0 mm
22:24 22.4 °C 16.9 °C 1017.8 hPa Calm     71 % 0 mm
22:30 22.3 °C 16.8 °C 1017.8 hPa Calm     71 % 0 mm
22:35 22.2 °C 16.7 °C 1017.8 hPa Calm     71 % 0 mm
22:40 22.1 °C 16.6 °C 1017.8 hPa Calm     71 % 0 mm
22:45 22.1 °C 16.8 °C 1017.8 hPa Calm     72 % 0 mm
22:50 21.9 °C 16.9 °C 1018.2 hPa Calm     73 % 0 mm
22:55 21.8 °C 17 °C 1017.8 hPa Calm   1.9 km/h 74 % 0 mm
23:00 21.7 °C 16.9 °C 1017.8 hPa Calm     74 % 0 mm
23:05 21.6 °C 16.8 °C 1017.8 hPa Calm     74 % 0 mm
23:10 21.5 °C 16.7 °C 1017.8 hPa Calm     74 % 0 mm
23:15 21.4 °C 16.8 °C 1017.8 hPa Calm     75 % 0 mm
23:20 21.3 °C 16.9 °C 1017.8 hPa Calm     76 % 0 mm
23:25 21.2 °C 17 °C 1017.8 hPa Calm     77 % 0 mm
23:30 21 °C 16.8 °C 1017.8 hPa Calm     77 % 0 mm
23:35 20.9 °C 16.9 °C 1017.8 hPa Calm     78 % 0 mm
23:40 20.8 °C 16.8 °C 1017.8 hPa Calm     78 % 0 mm
23:45 20.7 °C 16.6 °C 1018.2 hPa Calm     77 % 0 mm
23:50 20.6 °C 16.6 °C 1018.2 hPa Calm     78 % 0 mm
23:55 20.5 °C 16.6 °C 1018.2 hPa Calm     78 % 0 mm
Crab Meadow Weather
Compliments of Weather Underground - 3 mb

Script developed by  Jim McMurry - jmcmurry@mwt.net Adapted for the template by  Wim van der Kuil - Leuven-Template.eu

Astronomy: Water covers 71% of Earth.